Location: Arleux
(50.3632°N, 2.8721°E)
Time: 04:17:44
(UTC+00:00)

Cosmos 405 Rocket - Pass Details

Date: 15 December 2019
Orbit: 490 x 555 km, 81.3° (Epoch: 18 January)

Event Time Altitude Azimuth Distance (km) Brightness Sun altitude
Rises 06:53:32 0° 171° (S) 2,619 6.9 -7.3°
Reaches altitude 10° 06:55:45 10° 164° (SSE) 1,727 6.1 -7.0°
Maximum altitude 06:59:17 38° 95° (E) 786 4.3 -6.5°
Drops below altitude 10° 07:02:46 10° 27° (NNE) 1,713 5.3 -6.0°
Sets 07:04:58 0° 19° (NNE) 2,595 6.1 -5.7°
